Cando, ND

11:40 AM CDT on September 26, 2016 (GMT -0500)
Cando

Weather History for K9D7 - October, 2013

Change the Weather History Date:

Sunday, October 27, 2013

  Actual Average (KDVL) Record (KDVL)
Temperature  
Mean Temperature 31 °F -  
Max Temperature 41 °F 51 °F 71 °F (1990)
Min Temperature 21 °F 31 °F 14 °F (1976)
Degree Days  
Heating Degree Days 34    
Moisture  
Dew Point 24 °F    
Average Humidity 71    
Maximum Humidity 87    
Minimum Humidity 56    
Precipitation  
Precipitation 0.00 in - - ()
Sea Level Pressure  
Sea Level Pressure 30.04 in    
Wind  
Wind Speed 14 mph (North)    
Max Wind Speed 26 mph    
Max Gust Speed 34 mph    
Visibility 10 miles    
Events      
Averages and records for this station are not official NWS values.
T = Trace of Precipitation, MM = Missing Value Source: NWS Daily Summary

Daily Weather History Graph

Daily Weather History Graph

Search for Another Location

Airport or City:

Trip Planner

Search our weather history database for the weather conditions in past years. The results will help you decide how hot, cold, wet, or windy it might be!

Date:

Astronomy

Oct. 27, 2013 Rise Set
Actual Time 8:15 AM CDT 6:25 PM CDT
Civil Twilight 7:43 AM CDT 6:57 PM CDT
Nautical Twilight 7:06 AM CDT 7:34 PM CDT
Astronomical Twilight 6:30 AM CDT 8:10 PM CDT
Moon 12:42 AM CDT (10/27) 3:04 PM CDT (10/27)
Length of Visible Light 11h 14m
Length of Day
10h 09m
Last Quarter, 43% of the Moon is Illuminated
Oct 27
Last Quarter
Nov 3
New
Nov 9
First Quarter
Nov 17
Full
Nov 25
Last Quarter

Hourly Weather History & Observations

Time (CDT) Temp. Windchill Dew Point Humidity Pressure Visibility Wind Dir Wind Speed Gust Speed Precip Events Conditions
12:15 AM 35.6 °F 29.2 °F 26.6 °F 70% 29.74 in 10.0 mi WSW 8.1 mph - N/A   Clear
12:35 AM 35.6 °F 28.6 °F 26.6 °F 70% 29.74 in 10.0 mi West 9.2 mph - N/A   Clear
12:55 AM 37.4 °F 30.8 °F 28.4 °F 70% 29.72 in 10.0 mi West 9.2 mph - N/A   Clear
1:15 AM 39.2 °F 31.6 °F 28.4 °F 65% 29.72 in 10.0 mi West 12.7 mph - N/A   Clear
1:35 AM 39.2 °F 31.2 °F 28.4 °F 65% 29.72 in 10.0 mi West 13.8 mph - N/A   Mostly Cloudy
1:55 AM 39.2 °F 32.5 °F 28.4 °F 65% 29.71 in 10.0 mi WNW 10.4 mph - N/A   Overcast
2:15 AM 37.4 °F 30.3 °F 28.4 °F 70% 29.71 in 10.0 mi West 10.4 mph - N/A   Mostly Cloudy
2:35 AM 37.4 °F 30.3 °F 28.4 °F 70% 29.71 in 10.0 mi WNW 10.4 mph - N/A   Scattered Clouds
2:55 AM 39.2 °F 31.6 °F 28.4 °F 65% 29.72 in 10.0 mi WNW 12.7 mph - N/A   Partly Cloudy
3:15 AM 37.4 °F 30.3 °F 28.4 °F 70% 29.72 in 10.0 mi WNW 10.4 mph - N/A   Partly Cloudy
3:35 AM 37.4 °F 30.3 °F 28.4 °F 70% 29.72 in 10.0 mi WNW 10.4 mph - N/A   Mostly Cloudy
3:55 AM 37.4 °F 33.8 °F 30.2 °F 75% 29.72 in 10.0 mi NW 4.6 mph - N/A   Mostly Cloudy
4:15 AM 37.4 °F 32.1 °F 30.2 °F 75% 29.73 in 10.0 mi NW 6.9 mph - N/A   Mostly Cloudy
4:35 AM 37.4 °F 30.8 °F 30.2 °F 75% 29.74 in 10.0 mi NW 9.2 mph - N/A   Overcast
4:55 AM 37.4 °F 30.8 °F 30.2 °F 75% 29.75 in 10.0 mi WNW 9.2 mph - N/A   Mostly Cloudy
5:15 AM 37.4 °F 31.4 °F 30.2 °F 75% 29.76 in 10.0 mi NW 8.1 mph - N/A   Mostly Cloudy
5:35 AM 37.4 °F 28.9 °F 30.2 °F 75% 29.79 in 10.0 mi North 13.8 mph 19.6 mph N/A   Mostly Cloudy
5:55 AM 37.4 °F 30.3 °F 28.4 °F 70% 29.80 in 10.0 mi North 10.4 mph - N/A   Mostly Cloudy
6:15 AM 35.6 °F 28.0 °F 28.4 °F 75% 29.81 in 10.0 mi North 10.4 mph - N/A   Scattered Clouds
6:35 AM 33.8 °F 27.0 °F 28.4 °F 81% 29.82 in 10.0 mi North 8.1 mph - N/A   Partly Cloudy
6:55 AM 32.0 °F 24.2 °F 28.4 °F 87% 29.83 in 10.0 mi North 9.2 mph - N/A   Clear
7:15 AM 33.8 °F 25.8 °F 28.4 °F 81% 29.85 in 10.0 mi North 10.4 mph - N/A   Clear
7:35 AM 32.0 °F 24.2 °F 26.6 °F 80% 29.87 in 10.0 mi North 9.2 mph - N/A   Clear
7:55 AM 33.8 °F 24.3 °F 26.6 °F 75% 29.88 in 10.0 mi North 13.8 mph 18.4 mph N/A   Clear
8:15 AM 35.6 °F 26.6 °F 28.4 °F 75% 29.89 in 10.0 mi NNE 13.8 mph 20.7 mph N/A   Clear
8:35 AM 35.6 °F 25.5 °F 28.4 °F 75% 29.90 in 10.0 mi NNE 17.3 mph 25.3 mph N/A   Clear
8:55 AM 35.6 °F 24.8 °F 28.4 °F 75% 29.92 in 10.0 mi NNE 19.6 mph 25.3 mph N/A   Scattered Clouds
9:15 AM 35.6 °F 24.8 °F 28.4 °F 75% 29.93 in 10.0 mi NNE 19.6 mph 29.9 mph N/A   Partly Cloudy
9:35 AM 35.6 °F 25.2 °F 28.4 °F 75% 29.95 in 10.0 mi NNE 18.4 mph 28.8 mph N/A   Mostly Cloudy
9:55 AM 37.4 °F 26.6 °F 28.4 °F 70% 29.97 in 10.0 mi NNE 21.9 mph 27.6 mph N/A   Overcast
10:15 AM 37.4 °F 25.9 °F 28.4 °F 70% 29.96 in 10.0 mi NNE 25.3 mph 31.1 mph N/A   Overcast
10:35 AM 37.4 °F 25.9 °F 28.4 °F 70% 29.98 in 10.0 mi NNE 25.3 mph 28.8 mph N/A   Mostly Cloudy
10:55 AM 37.4 °F 27.8 °F 28.4 °F 70% 29.99 in 10.0 mi NNE 17.3 mph 27.6 mph N/A   Overcast
11:15 AM 37.4 °F 26.9 °F 28.4 °F 70% 30.00 in 10.0 mi NE 20.7 mph 27.6 mph N/A   Mostly Cloudy
11:35 AM 39.2 °F 28.7 °F 26.6 °F 61% 30.02 in 10.0 mi NNE 23.0 mph 28.8 mph N/A   Scattered Clouds
11:55 AM 39.2 °F 29.8 °F 26.6 °F 61% 30.04 in 10.0 mi NNE 18.4 mph 27.6 mph N/A   Mostly Cloudy
12:15 PM 41.0 °F 31.6 °F 28.4 °F 61% 30.04 in 10.0 mi North 20.7 mph 28.8 mph N/A   Overcast
12:35 PM 39.2 °F 29.3 °F 26.6 °F 61% 30.04 in 10.0 mi NNE 20.7 mph 29.9 mph N/A   Overcast
12:55 PM 37.4 °F 27.2 °F 26.6 °F 65% 30.05 in 10.0 mi NNE 19.6 mph 24.2 mph N/A   Overcast
1:15 PM 37.4 °F 26.9 °F 24.8 °F 60% 30.06 in 10.0 mi NNE 20.7 mph 31.1 mph N/A   Overcast
1:35 PM 37.4 °F 27.2 °F 24.8 °F 60% 30.08 in 10.0 mi NNE 19.6 mph 28.8 mph N/A   Overcast
1:55 PM 37.4 °F 26.4 °F 23.0 °F 56% 30.09 in 10.0 mi NNE 23.0 mph 28.8 mph N/A   Overcast
2:15 PM 37.4 °F 26.6 °F 23.0 °F 56% 30.10 in 10.0 mi NNE 21.9 mph 26.5 mph N/A   Overcast
2:35 PM 37.4 °F 27.2 °F 23.0 °F 56% 30.11 in 10.0 mi NNE 19.6 mph 24.2 mph N/A   Overcast
2:55 PM 33.8 °F 21.0 °F 26.6 °F 75% 30.12 in 10.0 mi NNE 25.3 mph 34.5 mph N/A   Overcast
3:15 PM 32.0 °F 18.9 °F 26.6 °F 80% 30.14 in 10.0 mi NNE 24.2 mph 34.5 mph N/A   Overcast
3:35 PM 32.0 °F 18.4 °F 24.8 °F 75% 30.15 in 10.0 mi NNE 26.5 mph 34.5 mph N/A   Overcast
3:55 PM 32.0 °F 18.9 °F 23.0 °F 69% 30.16 in 10.0 mi NNE 24.2 mph 33.4 mph N/A   Overcast
4:15 PM 32.0 °F 18.6 °F 23.0 °F 69% 30.18 in 10.0 mi NNE 25.3 mph 33.4 mph N/A   Overcast
4:35 PM 30.2 °F 16.5 °F 21.2 °F 69% 30.20 in 10.0 mi NNE 24.2 mph 33.4 mph N/A   Overcast
4:55 PM 28.4 °F 15.4 °F 21.2 °F 74% 30.21 in 10.0 mi NNE 19.6 mph 31.1 mph N/A   Mostly Cloudy
5:15 PM 28.4 °F 15.8 °F 19.4 °F 69% 30.23 in 10.0 mi NNE 18.4 mph 28.8 mph N/A   Overcast
5:35 PM 28.4 °F 16.2 °F 19.4 °F 69% 30.24 in 10.0 mi NNE 17.3 mph 27.6 mph N/A   Overcast
5:55 PM 28.4 °F 15.4 °F 19.4 °F 69% 30.25 in 10.0 mi NNE 19.6 mph 24.2 mph N/A   Overcast
6:15 PM 28.4 °F 16.2 °F 19.4 °F 69% 30.27 in 10.0 mi NNE 17.3 mph 25.3 mph N/A   Overcast
6:35 PM 28.4 °F 15.1 °F 19.4 °F 69% 30.28 in 10.0 mi NNE 20.7 mph 26.5 mph N/A   Overcast
6:55 PM 26.6 °F 13.8 °F 17.6 °F 69% 30.29 in 10.0 mi NNE 17.3 mph 23.0 mph N/A   Overcast
7:15 PM 26.6 °F 14.7 °F 17.6 °F 69% 30.31 in 10.0 mi NNE 15.0 mph 23.0 mph N/A   Overcast
7:35 PM 26.6 °F 14.7 °F 17.6 °F 69% 30.32 in 10.0 mi NE 15.0 mph 25.3 mph N/A   Overcast
7:55 PM 24.8 °F 11.5 °F 15.8 °F 69% 30.33 in 10.0 mi NNE 17.3 mph 20.7 mph N/A   Scattered Clouds
8:15 PM 24.8 °F 12.4 °F 15.8 °F 69% 30.34 in 10.0 mi NE 15.0 mph 20.7 mph N/A   Clear
8:35 PM 24.8 °F 13.4 °F 15.8 °F 69% 30.35 in 10.0 mi NNE 12.7 mph - N/A   Clear
8:55 PM 23.0 °F 11.7 °F 15.8 °F 74% 30.36 in 10.0 mi NNE 11.5 mph - N/A   Clear
9:15 PM 23.0 °F 11.7 °F 15.8 °F 74% 30.37 in 10.0 mi NNE 11.5 mph 16.1 mph N/A   Clear
9:35 PM 23.0 °F 10.6 °F 15.8 °F 74% 30.37 in 10.0 mi NNE 13.8 mph 19.6 mph N/A   Clear
9:55 PM 23.0 °F 11.7 °F 15.8 °F 74% 30.38 in 10.0 mi NNE 11.5 mph - N/A   Clear
10:15 PM 21.2 °F 8.9 °F 15.8 °F 80% 30.39 in 10.0 mi NNE 12.7 mph - N/A   Clear
10:35 PM 21.2 °F 9.5 °F 15.8 °F 80% 30.40 in 10.0 mi NNE 11.5 mph 17.3 mph N/A   Clear
10:55 PM 23.0 °F 12.4 °F 15.8 °F 74% 30.40 in 10.0 mi NNE 10.4 mph 17.3 mph N/A   Clear
11:15 PM 23.0 °F 11.7 °F 15.8 °F 74% 30.41 in 10.0 mi NE 11.5 mph 17.3 mph N/A   Mostly Cloudy
11:35 PM 24.8 °F 11.9 °F 15.8 °F 69% 30.42 in 10.0 mi NE 16.1 mph 24.2 mph N/A   Overcast
11:55 PM 24.8 °F 12.9 °F 15.8 °F 69% 30.43 in 10.0 mi NE 13.8 mph 24.2 mph N/A   Overcast